Home > Weather > Omsk > Past weeks

Flag for Russia Weather for the Past 2 Weeks in Omsk, Russia

Now
5 °F

Light snow. Passing clouds.


Feels Like: -8 °F
Forecast: 0 / 10 °F
Wind: 8 mph from Northwest

Location: Omsk

Current Time: Feb 9, 2016 at 8:12:52 AM

Latest Report: Feb 9, 2016 at 7:00 AM


Visibility: N/A

Pressure: 29.98 "Hg

Humidity: 92%

Dew point: 3 °F

Location of OmskLocation

Historic Weather in Omsk — Graph

°F

Omsk Temperature Yesterday

Maximum temperature yesterday: 27 °F (at 12:00 AM)
Minimum temperature yesterday: 14 °F (at 8:30 PM)
Average temperature yesterday: 20 °F

High & Low Weather Summary for the Past Weeks

 TemperatureHumidityPressure
High36 °F (Feb 6, 2:00 PM)100% (Feb 1, 9:00 PM)30.63 "Hg (Feb 1, 9:00 PM)
Low-11 °F (Jan 30, 8:30 AM)55% (Jan 27, 12:00 AM)29.59 "Hg (Feb 5, 4:30 AM)
Average10 °F83%30.25 "Hg
* Reported Jan 25 7:00 AM — Feb 9 7:00 AM, Omsk, Weather by CustomWeather, © 2016

Note: Actual official high and low records may vary slightly from our data, if they occured in-between our weather recording intervals... More about our weather records

Advertising

Omsk Weather History for the Previous 24 Hours

 ConditionsComfort  
Time TempWeatherWind HumidityBarometerVisibility
7:00 AM
Tue, Feb 9
5 °FLight snow. Passing clouds.8 mph92%29.98 "HgN/A
6:30 AM7 °FPassing clouds.10 mph92%29.98 "HgN/A
6:00 AM7 °FPassing clouds.8 mph92%29.98 "HgN/A
5:30 AM9 °FPassing clouds.10 mph85%29.98 "HgN/A
5:00 AM9 °FPassing clouds.8 mph85%29.98 "HgN/A
4:00 AM9 °FPassing clouds.8 mph85%29.95 "HgN/A
3:30 AM10 °FPassing clouds.8 mph85%29.95 "HgN/A
3:00 AM9 °FSnow flurries. Passing clouds.6 mph85%29.95 "HgN/A
2:30 AM12 °FSnow flurries. Passing clouds.6 mph92%29.95 "Hg4 mi
2:00 AM12 °FSnow flurries. Passing clouds.6 mph92%29.95 "Hg2 mi
1:30 AM14 °FSnow flurries. Passing clouds.8 mph92%29.95 "Hg4 mi
1:00 AM16 °FSnow flurries. Passing clouds.8 mph86%29.95 "Hg2 mi
12:30 AM16 °FSnow flurries. Passing clouds.13 mph86%29.92 "Hg3 mi
12:00 AM16 °FSnow flurries. Passing clouds.13 mph86%29.92 "Hg3 mi
11:30 PM
Mon, Feb 8
16 °FSnow flurries. Passing clouds.8 mph93%29.92 "Hg2 mi
11:00 PM16 °FLight snow. Passing clouds.8 mph86%29.92 "Hg4 mi
10:30 PM16 °FLight snow. Passing clouds.8 mph86%29.92 "HgN/A
10:00 PM14 °FLight snow. Passing clouds.8 mph92%29.92 "HgN/A
9:30 PM14 °FLight snow. Passing clouds.6 mph92%29.89 "Hg5 mi
9:00 PM14 °FLight snow. Passing clouds.8 mph85%29.89 "Hg5 mi
8:30 PM14 °FLight snow. Passing clouds.8 mph85%29.89 "Hg5 mi
8:00 PM16 °FSnow flurries. Passing clouds.8 mph86%29.89 "HgN/A
7:30 PM16 °FSnow flurries. Partly sunny.10 mph86%29.89 "HgN/A
7:00 PM16 °FPartly sunny.13 mph86%29.89 "HgN/A
6:30 PM18 °FSnow flurries. Partly sunny.13 mph86%29.86 "HgN/A
6:00 PM18 °FSnow flurries. Partly sunny.8 mph86%29.86 "HgN/A
5:30 PM18 °FSnow flurries. Partly sunny.10 mph86%29.86 "HgN/A
5:00 PM18 °FSnow flurries. Partly sunny.10 mph86%29.83 "Hg5 mi
4:30 PM18 °FSnow flurries. Partly sunny.10 mph86%29.83 "Hg5 mi
4:00 PM18 °FPartly sunny.13 mph86%29.83 "HgN/A
3:30 PM19 °FPartly sunny.15 mph86%29.80 "HgN/A
3:00 PM19 °FPartly sunny.15 mph86%29.80 "HgN/A
2:30 PM19 °FBroken clouds.13 mph86%29.80 "HgN/A
2:00 PM19 °FBroken clouds.13 mph86%29.80 "HgN/A
1:30 PM19 °FBroken clouds.10 mph86%29.80 "HgN/A
1:00 PM19 °FBroken clouds.13 mph86%29.80 "HgN/A
12:30 PM19 °FBroken clouds.13 mph86%29.80 "HgN/A
12:00 PM18 °FPartly sunny.15 mph93%29.77 "HgN/A
11:30 AM18 °FBroken clouds.13 mph93%29.77 "HgN/A
11:00 AM19 °FBroken clouds.10 mph86%29.77 "HgN/A
10:30 AM19 °FPassing clouds.10 mph86%29.77 "HgN/A
10:00 AM19 °FPartly cloudy.13 mph86%29.74 "HgN/A
9:30 AM19 °FPassing clouds.13 mph86%29.74 "HgN/A
9:00 AM19 °FPassing clouds.10 mph86%29.74 "HgN/A
8:30 AM19 °FPassing clouds.13 mph93%29.71 "HgN/A
8:00 AM21 °FPartly cloudy.13 mph86%29.71 "HgN/A
Weather by CustomWeather, © 2016

See weather overviewHow to use our weather pages